LDZALDDU

Guest
Details From LDZA - Zagreb
To LDDU - DUBROVNIK
Flight Number -
Tags generated
Created
Modified
Stats Distance 213 nm / 395 km
Max Altitude 26,800 ft / 8,169 m
Waypoints 4
Social Downloads 3
Likes 0
Share VATSIM

Download

Looking for another format? Having issues loading an existing format? Contact us
Advertisement - Login to hide

Notes

Basic altitude profile: - Ascent Rate: 2500ft/min - Ascent Speed: 250kts - Cruise Altitude: 8000ft - Cruise Speed: 420kts - Descent Rate: 1500ft/min - Descent Speed: 250kts Options: - Use NATs: yes - Use PACOTS: yes - Use low airways: yes - Use high airways: yes

Route

LDZA IDASI L187 VRANA LDDU

ID Type Via Altitude Latitude Longitude Leg Dist Tot Dist Heading (true) Name
O LDZA APT - 0 ft / 0 m 45.74189˚ 16.06720˚ - 0 nm - Zagreb
IDASI FIX - 26,800 ft / 8,169 m 44.47028˚ 17.10528˚ 88 nm 88 nm 150° / 150° -
VRANA FIX L187 (AWY-LO) 16,700 ft / 5,090 m 43.75361˚ 17.53778˚ 46 nm 135 nm 156° / 157° -
O LDDU APT - 0 ft / 0 m 42.56284˚ 18.26450˚ 78 nm 213 nm 156° / 156° DUBROVNIK

Altitude Profile

Advertisement - Login to hide

Weather


0- 5 10 15 20 25 30 35+ Temperature / ° C

Clouds and Precipitation
Forecast for 2018-06-21 00:00 UTC. Updated 5 hours ago

Ground ~20,000 ft ~40,000 ft Winds

LDZA

Details ICAO LDZA (ZAG)
Name Zagreb
Region Croatia
Timezone Europe/Zagreb (UTC+2.0)
Stats Elevation 353 ft / 108 m (AMSL)
Location 45.741890° 16.067200°
Runways 1
Magnetic Variation 4.017° E

METAR

LDZA 210230Z VRB02KT CAVOK 17/15 Q1017 NOSIG

Decode

TAF

TAF LDZA 202325Z 2100/2200 VRB02KT CAVOK TX31/2113Z TN17/2103Z BECMG 2113/2115 23008KT

Decode

Departure Runways

ID Width Length Bearing (true) Bearing (mag) Surface Threshold Offset Overrun Length
05 148 ft / 45 m 10,659 ft / 3,249 m 46.69° 42.67° Asphalt 0 ft / 0 m 195 ft / 59 m
23 148 ft / 45 m 10,659 ft / 3,249 m 226.71° 222.69° Asphalt 0 ft / 0 m 195 ft / 59 m

LDDU

Details ICAO LDDU (DBV)
Name DUBROVNIK
Region Croatia
Timezone Europe/Zagreb (UTC+2.0)
Stats Elevation 527 ft / 161 m (AMSL)
Location 42.562840° 18.264499°
Runways 1
Magnetic Variation 4.154° E

METAR

LDDU 210230Z 08003KT 050V150 CAVOK 22/14 Q1017 NOSIG

Decode

TAF

TAF LDDU 202325Z 2100/2200 02010KT CAVOK TX28/2112Z TN22/2103Z BECMG 2107/2109 29010KT PROB40 TEMPO 2112/2116 TS FEW030CB SCT035 BECMG 2116/2118 VRB02KT

Decode

Destination Runways

ID Width Length Bearing (true) Bearing (mag) Surface Threshold Offset Overrun Length
12 148 ft / 45 m 10,803 ft / 3,293 m 118.30° 114.15° Asphalt 488 ft / 149 m 100 ft / 30 m
30 148 ft / 45 m 10,803 ft / 3,293 m 298.33° 294.18° Asphalt 0 ft / 0 m 100 ft / 30 m

Approach Navaids

Runway Type Ident Frequency Range Bearing (true) Bearing (mag) Slope Elevation
12 Localiser IDU 110.10 MHz 25 nm / 46 km 118.21° 114.06° - 469 ft / 143 m (AMSL)
12 Glidescope IDU 110.10 MHz 25 nm / 46 km 118.21° 114.06° 3.00° 502 ft / 153 m (AMSL)

Popular Alternatives